Content
SEND FEEDBACK

Daily
Averages
Monthly
Summary
United States of America

ASATDAS, GUAM


Home > North America > United States > Guam
Elevation: 186 meters     Latitude: 13 35N     Longitude: 144 56E

WEATHER
 
SELECT A DAY
Number of Records: 215,702;   Date Range: 1/1/95 - 12/24/14
 
SHARE

PRINT THIS DATA

[ ← Previous Day ]
WEATHER ALMANAC - 16 FEBRUARY, 2014
[ Next Day → ]
[ °F ]   °C
Weather ElementAverageHighLow
Temperature26.4 °C30 °C (11:54 am)22.8 °C (5:54 am)
Dewpoint21.4 °C22.2 °C (9:54 am)20.6 °C (3:54 am)
Humidity74.6 %87 % (5:54 am)59 % (3:54 pm)
Barometer1012.2 hPa1013.9 hPa (9:54 pm)1010.2 hPa (3:54 pm)
Wind Speed14.5 km/h24.1 km/h (12:54 pm)
Weather ElementAverage
Visibility16.1 km
Wind DirectionSE (134.8 °)

Weather ElementTotal
Precipitation---
Cooling Degree Days8.1 (Base 18.3)
Growing Degree Days16.4 (Base 10)
Averaged from 25 records on 16 February, 2014
WEATHER CONDITIONS BREAKOUT
WIND DIRECTION BREAKOUT
WEATHER BY HOUR - 16 FEBRUARY, 2014
[ °F ]   °C
Local TimeTemperatureDewpointHumidityBarometerVisibilityWind DirectionWind SpeedGust SpeedPrecipitationEventsConditions
1:17 AM24 °C21 °C83 %1012.9 hPa16.1 kmNorth (350°)5.6 km/hMostly Cloudy
1:38 AM24 °C21 °C83 %1012.9 hPa16.1 kmNE (40°)7.4 km/hScattered Clouds
1:54 AM23.9 °C21.1 °C84 %1012.2 hPa16.1 kmNE (50°)9.3 km/hClear
2:54 AM24.4 °C21.1 °C82 %1011.5 hPa16.1 kmNE (50°)9.3 km/hClear
3:54 AM23.3 °C20.6 °C85 %1011.5 hPa16.1 kmNNE (30°)7.4 km/hPartly Cloudy
4:54 AM23.3 °C20.6 °C85 %1011.5 hPa16.1 kmENE (60°)9.3 km/hClear
5:54 AM22.8 °C20.6 °C87 %1011.9 hPa16.1 kmNE (50°)7.4 km/hClear
6:54 AM22.8 °C20.6 °C87 %1012.2 hPa16.1 kmNE (40°)9.3 km/hClear
7:54 AM26.1 °C21.7 °C77 %1012.9 hPa16.1 kmNE (40°)9.3 km/hClear
8:54 AM27.8 °C21.7 °C69 %1013.5 hPa16.1 kmNNE (20°)13 km/hPartly Cloudy
9:54 AM28.9 °C22.2 °C67 %1013.5 hPa16.1 kmNorth (350°)13 km/hScattered Clouds
10:54 AM29.4 °C21.7 °C63 %1013.2 hPa16.1 kmNorth (360°)20.4 km/hScattered Clouds
11:54 AM30 °C21.7 °C61 %1012.5 hPa16.1 kmNorth (350°)22.2 km/hPartly Cloudy
12:54 PM30 °C21.7 °C61 %1011.5 hPa16.1 kmNorth (350°)24.1 km/hPartly Cloudy
1:54 PM30 °C21.7 °C61 %1011.2 hPa16.1 kmNorth (350°)22.2 km/hPartly Cloudy
2:54 PM30 °C21.7 °C61 %1010.5 hPa16.1 kmNNW (340°)24.1 km/hPartly Cloudy
3:54 PM30 °C21.1 °C59 %1010.2 hPa16.1 kmNorth (350°)24.1 km/hPartly Cloudy
4:54 PM29.4 °C20.6 °C59 %1010.5 hPa16.1 kmNNE (20°)22.2 km/hScattered Clouds
5:54 PM27.2 °C21.7 °C72 %1011.2 hPa16.1 kmNorth (10°)22.2 km/hScattered Clouds
6:54 PM26.1 °C21.7 °C77 %1011.9 hPa16.1 kmNorth (10°)20.4 km/hPartly Cloudy
7:54 PM26.1 °C21.7 °C77 %1012.5 hPa16.1 kmNNE (20°)18.5 km/hPartly Cloudy
8:54 PM25.6 °C21.1 °C76 %1013.5 hPa16.1 kmNE (40°)9.3 km/hPartly Cloudy
9:54 PM25 °C21.7 °C82 %1013.9 hPa16.1 kmNNE (20°)11.1 km/hPartly Cloudy
10:54 PM25 °C21.7 °C82 %1013.9 hPa16.1 kmNNE (20°)11.1 km/hPartly Cloudy
11:54 PM25 °C22.2 °C84 %1013.9 hPa16.1 kmNE (50°)9.3 km/hClear
Hourly data recorded from PGUM, located 0 kilometers away from Asatdas, Guam







STORIES FROM OUR PARTNERS